Skylink-2

operational
NORAD ID: 62672 Int'l Des: NNA 2025-009 Owner: HELLO Country: TR
LEOCIRCULARRETROGRADESSO

About Skylink-2

Description loading...

Live Position

Loading 3D Globe...

Upcoming Passes

Altitude History

Altitude vs Time

uPlot chart will show altitude changes over time

Two-Line Element Set

1 62672U 25009BR 25311.18920540 .00006350 00000-0 29355-3 0 9991
2 62672 97.4173 28.7735 0005805 46.9762 313.1959 15.20499471102624
Epoch: Nov 7, 2025 • Age: 32 hours

Current Status

Altitude 515.3 km
Velocity 7.61 km/s
Sub-Earth Point 78.25°N, 12.17°E
Launch Date Jan 14, 2025
Age 0.8 years
Type other

Technical Details

Classification Payload
Mass 0.75 kg
Dry Mass 0.75 kg
Total Mass 0.75 kg
Length 0.15 m
Diameter 0.05 m
Span 0.35 m
Shape Box+ 2 pan
Manufacturer HELLO
Bus Type PocketQube 3P
Phase Status In Orbit
Owner/State HELLO/TR

Large Constellations

Loading constellations...